Regional Weather Roundup
Issued by NWS

Home | Current Version | Previous Version | Graphics & Text | Print | Product List | Glossary On
Versions: 1 2 3 4 5 6 7 8 9 10 11 12 13 14 15 16 17 18 19 20 21 22 23 24 25 26 27 28 29 30 31 32 33 34 35 36 37 38 39 40 41 42 43 44 45 46 47 48 49 50
000
ASUS43 KLOT 270600
RWRIL

ILLINOIS REGIONAL WEATHER ROUNDUP
NATIONAL WEATHER SERVICE CHICAGO/ROMEOVILLE IL
1200 AM CST THU NOV 27 2014

NOTE: "FAIR" INDICATES FEW OR NO CLOUDS BELOW 12,000 FEET WITH NO
SIGNIFICANT WEATHER AND/OR OBSTRUCTIONS TO VISIBILITY.

* THESE STATIONS ARE NOT UNDER NWS QUALITY CONTROL. THEY ALSO MAY NOT
  REPORT WEATHER SUCH AS PRECIPITATION OR FOG.

ILZ001-002-007-009-015-016-024-270700-
NORTHWEST ILLINOIS

CITY           SKY/WX    TMP DP  RH WIND       PRES   REMARKS
MOLINE         PTCLDY    24  18  77 NW6       30.27R WCI  17
6HR MIN TEMP:  24; 6HR MAX TEMP:  28; 6HR PCP: TRACE;

STERLING*      FAIR      21  16  79 N7        30.25R WCI  13
$$

ILZ003-004-008-010-011-017-018-270700-
NORTH CENTRAL ILLINOIS

CITY           SKY/WX    TMP DP  RH WIND       PRES   REMARKS
ROCKFORD       PTCLDY    18  14  84 N6        30.24S FOG     WCI  10
6HR MIN TEMP:  18; 6HR MAX TEMP:  27;

$$

ILZ005-006-012>014-019>023-270700-
NORTHEAST ILLINOIS

CITY           SKY/WX    TMP DP  RH WIND       PRES   REMARKS
CHICAGO-OHARE  FLURRIES  26  21  81 NW9       30.18R WCI  17
6HR MIN TEMP:  26; 6HR MAX TEMP:  29; 6HR PCP: TRACE;

CHICAGO-MIDWAY LGT SNOW  30  23  75 NW9       30.19R WCI  22
6HR MIN TEMP:  30; 6HR MAX TEMP:  32; 6HR PCP: TRACE;

AURORA         CLOUDY    25  19  78 NW10      30.21R HAZE    WCI  15
6HR MIN TEMP:  23; 6HR MAX TEMP:  28;

WAUKEGAN       CLOUDY    24  19  81 NW8       30.18R WCI  15
6HR MIN TEMP:  24; 6HR MAX TEMP:  27;

DUPAGE AIRPORT CLOUDY    25  20  81 NW7       30.19R WCI  17
6HR MIN TEMP:  25; 6HR MAX TEMP:  29;

WHEELING       CLOUDY    26  20  77 NW12      30.20R WCI  16
6HR MIN TEMP:  26; 6HR MAX TEMP:  29;

NORTHERLY ISL    N/A     29  25  85 W8          N/A  WCI  21
$$

LMZ740>746-270700-
SOUTHERN LAKE MICHIGAN

STATION/POSITION SKY/WX   TEMP    WIND        PRES    VSBY  WAVE
                          AIR SEA DIR/SP/G                  HT/PER
                          (F)     (DEG/KT/KT) (MB)    (MI)  (FT/S)
SOUTHERN BUOY              32 42  330/  6/ 14 1021.7S         1/ 4
WAUKEGAN HARBOR            26     310/ 11/ 16   N/A
HARRISON CRIB              29     310/ 13/ 15   N/A
BURNHAM HARBOR             29     280/  5/ 11   N/A
CALUMET HARBOR             30     280/  7/ 13 1020.5R
MICHIGAN CITY              28     140/  3/  4   N/A
$$

ILZ025>027-034>036-040-047-049-050-058-095>099-270700-
WEST-CENTRAL ILLINOIS

CITY           SKY/WX    TMP DP  RH WIND       PRES   REMARKS
QUINCY         LGT SNOW  27  24  89 N13       30.28R FOG     WCI  16
$$

ILZ028>032-037-038-041>044-048-051>054-059>061-270700-
CENTRAL ILLINOIS

CITY           SKY/WX    TMP DP  RH WIND       PRES   REMARKS
BLOOMINGTON    PTCLDY    25  19  80 N9        30.21R WCI  15
DECATUR        CLOUDY    27  22  81 N8        30.21R WCI  19
PEORIA         PTCLDY    24  17  74 N6        30.25R WCI  17
6HR MIN TEMP:  24; 6HR MAX TEMP:  30; 6HR PCP:  0.01;

SPRINGFIELD    PTCLDY    26  23  88 N12       30.24R WCI  16
6HR MIN TEMP:  26; 6HR MAX TEMP:  30; 6HR PCP:  0.13;

TAYLORVILLE    NOT AVBL
$$

ILZ033-039-045-046-055>057-062-063-270700-
EAST-CENTRAL ILLINOIS

CITY           SKY/WX    TMP DP  RH WIND       PRES   REMARKS
CHAMPAIGN      CLOUDY    27  21  78 N15       30.19R WCI  15
MATTOON        FLURRIES  27  24  89 N14       30.16R WCI  16
$$

ILZ079-100>102-270700-
SOUTHWEST ILLINOIS

CITY           SKY/WX    TMP DP  RH WIND       PRES   REMARKS
BELLEVILLE     CLOUDY    32  32 100 N7        30.18R FOG     WCI  26
CAHOKIA*       LGT SNOW  34  32  92 N8        30.21R FOG     WCI  27
$$

ILZ064>066-069>071-074>076-080>082-084>086-088>090-092>094-270700-
SOUTH-CENTRAL ILLINOIS

CITY           SKY/WX    TMP DP  RH WIND       PRES   REMARKS
CARBONDALE     CLOUDY    33  31  92 NW7       30.16R FOG     WCI  27
6HR MIN TEMP:  32; 6HR MAX TEMP:  33; 6HR PCP:  0.06;

MT. VERNON     CLOUDY    32  28  86 CALM      30.16R
$$

ILZ067-068-072-073-078-083-087-091-270700-
SOUTHEAST ILLINOIS

CITY           SKY/WX    TMP DP  RH WIND       PRES   REMARKS
LAWRENCEVILLE  LGT SNOW  31  30  96 N10       30.14R FOG     WCI  22
$$

ABBREVIATIONS USED IN REMARKS
   TC - TEMPERATURE IN CELSIUS
  WCI - WIND CHILL INDEX
   HX - HEAT INDEX
  VSB - VISIBILITY
$$



USA.gov is the U.S. government's official web portal to all federal, state and local government web resources and services.